Wind_Speed
27 31 33 35 35 39 47 50 48 47 43 42 37 35 25 30 12 36 41 41 38 31 31 26 31 28 27 20 17 14 29 31 28 27 26 27 27 28 29 28 27 29 26 24 24 23 25 24 22
26 28 31 35 39 40 44 51 54 48 48 45 45 42 30 11 29 30 41 26 38 37 31 33 32 31 29 28 21 20 15 23 28 30 30 29 28 29 30 29 30 30 26 27 28 26 26 23 22
28 28 30 31 36 41 42 41 46 54 50 47 49 46 49 16 54 28 29 40 31 39 39 36 35 34 30 28 28 25 23 24 22 24 30 32 32 31 31 30 29 29 28 27 28 27 26 23 23
30 31 32 33 34 37 38 41 45 49 53 53 48 52 61 23 46 60 61 44 40 37 45 45 39 34 37 33 34 31 30 28 26 26 26 31 31 33 34 33 32 31 31 28 29 28 27 27 24
33 32 33 33 36 34 39 45 45 45 47 49 50 54 58 68 45 58 60 55 54 56 49 49 46 44 37 38 37 37 34 33 31 30 31 30 33 33 34 35 35 36 33 30 30 30 30 29 27
36 36 37 36 37 35 40 41 42 44 45 46 48 51 57 47 68 66 63 62 63 63 58 52 50 49 46 40 38 39 42 40 37 34 34 33 32 33 34 35 36 36 35 33 33 32 33 31 29
40 40 40 40 42 40 40 44 43 43 44 43 50 50 57 58 41 62 63 65 66 65 62 58 57 56 54 53 50 46 43 43 44 42 40 38 38 38 37 37 38 37 37 37 36 35 35 34 32
43 43 44 45 46 45 43 46 44 46 42 48 48 44 55 60 64 68 63 66 66 66 64 64 62 61 61 61 60 57 54 50 47 47 46 46 44 42 41 41 39 39 40 41 42 40 39 37 34
41 42 44 45 46 45 46 46 47 47 49 49 47 49 56 53 59 62 61 63 63 63 69 66 67 67 66 65 67 65 63 60 57 53 50 49 49 48 47 47 45 43 43 45 45 42 41 40 39
37 38 40 39 40 41 44 43 46 47 48 50 49 52 54 54 57 58 58 60 60 62 62 54 67 70 71 69 70 70 69 66 64 62 61 57 53 55 55 54 53 51 49 48 48 47 45 44 45
29 32 32 36 38 38 41 42 42 45 45 47 48 50 54 54 56 57 57 59 58 56 57 60 62 43 73 66 74 74 71 69 70 67 67 67 65 64 61 60 58 58 55 54 53 52 49 46 46
29 29 30 31 30 32 33 34 36 39 39 38 40 43 43 46 50 54 55 56 59 57 58 58 58 53 69 62 57 68 71 71 71 72 70 71 74 73 71 67 64 64 62 61 61 58 56 49 49
35 33 34 33 34 32 34 35 34 36 36 34 38 37 37 40 42 44 46 49 52 55 58 58 58 51 60 55 74 71 69 63 77 70 68 76 80 80 81 78 73 68 69 66 66 63 62 60 56
39 39 40 36 38 37 38 38 37 40 38 39 40 39 40 39 41 42 43 44 46 47 50 52 52 60 73 73 71 68 66 64 67 59 37 65 74 82 83 87 81 76 73 71 70 69 68 65 62
46 45 44 44 45 44 43 43 44 44 43 46 44 45 45 45 46 47 47 48 49 51 53 53 51 54 65 65 66 66 69 68 66 59 64 51 43 61 80 90 87 82 77 76 77 75 72 71 67
49 50 50 51 50 50 50 52 52 50 50 52 51 52 50 51 52 51 50 51 51 52 53 57 58 55 62 62 63 64 65 65 67 66 70 80 86 73 51 56 69 82 80 78 78 79 78 76 74
54 55 54 55 53 55 54 56 57 53 56 58 57 57 56 55 55 55 56 55 55 55 56 59 59 58 63 62 62 61 63 65 67 65 63 71 70 86 92 90 88 81 79 78 80 80 78 78 76
59 56 59 60 58 58 59 59 61 57 56 60 60 61 60 60 59 58 58 59 58 59 59 60 61 63 61 63 61 61 60 63 66 65 63 67 72 82 76 73 70 78 79 76 77 77 80 80 78
61 60 62 64 64 60 61 63 63 63 60 61 63 63 62 62 63 62 61 63 62 61 64 64 64 65 64 65 64 63 62 63 62 60 53 40 56 80 83 59 68 69 75 77 74 75 74 79 80
60 62 64 65 67 65 64 62 66 66 65 66 65 66 67 67 67 66 64 65 67 65 66 66 64 65 65 65 66 64 63 62 65 62 62 73 79 80 85 87 83 76 72 74 79 76 74 75 72
60 62 65 66 67 68 68 64 67 68 69 70 68 70 70 68 69 69 67 66 68 66 66 67 66 66 67 65 66 66 64 62 64 64 65 68 72 73 76 77 76 73 68 70 74 77 77 76 70
62 64 64 65 66 68 70 65 66 68 71 72 70 73 72 71 70 70 67 66 67 67 67 67 68 66 67 65 66 67 65 65 63 64 64 67 69 70 72 73 74 73 72 69 69 72 76 76 76
61 63 65 66 67 68 63 74 60 68 71 74 72 71 72 72 73 72 71 69 68 69 69 69 68 67 67 66 64 66 65 64 64 64 65 65 68 70 70 71 72 72 70 69 67 67 72 77 79
62 63 63 65 68 70 64 77 63 72 72 74 74 70 67 76 75 74 73 71 73 72 68 69 70 68 66 67 66 66 67 66 65 65 65 65 65 68 69 69 71 68 69 67 66 66 65 74 79
66 69 67 68 73 68 65 75 68 70 79 78 75 74 72 75 76 75 73 70 73 72 70 70 70 69 69 67 68 66 67 67 65 64 65 65 66 64 66 68 70 66 65 66 64 63 66 67 76
62 66 67 73 73 71 69 73 69 70 76 78 74 79 76 73 78 80 77 74 75 75 73 73 71 72 71 69 70 69 67 66 65 65 65 65 66 64 63 65 66 69 66 65 63 61 60 64 68
55 57 61 66 66 77 65 67 70 73 83 83 83 80 80 79 76 82 83 80 81 81 77 75 76 75 75 73 71 71 69 66 65 64 65 64 62 63 62 63 64 65 67 68 65 64 60 60 64
59 60 64 66 68 69 59 66 62 68 77 81 81 85 84 81 83 83 84 81 82 80 78 78 76 76 76 75 74 70 68 68 68 67 67 65 62 65 63 65 64 62 63 66 67 65 64 59 60
62 63 69 74 74 74 70 62 66 74 78 81 83 81 84 87 87 86 86 88 85 82 79 77 78 76 76 76 74 71 69 69 69 68 69 68 64 67 68 64 63 61 60 61 63 64 65 61 58
69 67 73 76 77 78 80 69 72 73 84 85 89 85 84 90 92 88 87 94 94 89 86 82 80 81 80 78 78 75 72 72 72 72 72 70 67 70 70 68 65 61 55 55 58 61 63 63 59
Wind_Direction
226 227 226 223 221 223 221 222 220 218 212 211 211 214 217 261 184 244 235 247 229 228 230 237 238 237 237 240 255 275 236 222 228 235 240 236 232 229 237 243 255 265 272 281 288 300 310 307 308
227 227 228 227 226 225 225 224 224 221 218 211 208 206 214 250 226 235 219 241 235 234 235 239 239 241 248 243 240 259 267 241 240 241 245 244 240 241 241 244 252 263 269 281 288 294 305 303 308
229 227 228 230 229 230 229 231 232 227 222 219 211 203 205 306 230 210 213 226 225 232 229 233 241 244 245 250 245 245 256 259 260 252 250 251 255 249 247 246 251 262 270 277 284 290 296 294 300
231 229 228 228 231 232 231 231 231 230 227 224 220 213 206 240 237 236 247 242 233 243 233 237 238 243 245 245 248 252 249 255 258 261 259 257 258 257 255 254 252 254 261 270 277 283 285 288 293
231 229 228 228 231 231 231 233 234 233 232 229 227 222 224 223 232 234 240 244 242 247 242 241 245 243 246 248 247 250 253 258 257 257 259 261 261 260 258 257 257 260 263 269 269 276 279 283 286
234 232 233 232 233 232 235 237 237 238 236 234 232 228 232 239 236 239 241 240 241 242 246 244 244 249 250 247 250 249 253 255 259 260 256 257 257 263 262 262 261 261 263 264 266 269 274 278 280
239 237 236 236 237 235 235 237 240 239 237 239 238 231 237 235 268 243 242 244 245 246 247 248 248 249 252 255 253 253 254 256 258 259 259 259 262 262 266 264 262 263 266 267 268 267 268 273 276
243 240 239 239 239 238 238 239 240 241 242 239 237 240 244 236 216 246 246 246 246 248 247 248 250 250 250 253 255 257 255 255 257 256 261 263 264 265 261 263 263 265 268 268 269 268 269 270 272
243 243 243 242 242 242 240 240 240 239 240 242 240 239 244 241 244 248 248 248 247 247 251 250 251 251 251 251 254 257 258 260 258 259 260 258 262 265 264 264 263 264 266 269 270 269 267 266 270
240 242 242 244 244 243 244 243 241 242 241 242 241 241 244 246 246 248 249 251 250 251 250 264 253 254 253 253 254 255 256 256 258 261 262 262 262 264 268 265 266 265 265 266 267 268 268 269 273
238 239 241 240 243 243 243 243 245 245 245 244 243 242 245 247 251 253 254 255 254 253 253 245 256 249 258 262 253 255 257 258 258 257 260 263 263 262 261 262 264 265 264 265 265 265 266 269 272
240 239 238 241 239 238 240 242 240 247 248 246 246 244 246 246 248 251 252 255 258 255 255 253 256 261 266 257 262 256 255 258 259 260 260 260 263 266 262 259 259 260 263 264 264 265 264 267 269
244 244 243 242 240 238 238 239 240 245 245 247 248 249 248 250 249 250 251 252 252 254 253 252 254 236 253 247 253 261 258 258 265 260 265 264 261 262 265 264 261 257 259 260 263 261 263 268 270
247 245 245 242 242 243 241 241 243 245 248 248 250 252 252 253 254 257 256 258 259 256 255 255 250 253 254 258 258 258 259 257 258 258 284 286 273 255 260 261 261 260 259 259 260 261 262 263 269
246 248 246 245 243 243 244 246 246 248 251 254 252 254 255 255 258 260 263 264 265 264 261 257 257 254 255 255 256 255 258 257 256 248 233 242 269 273 265 260 258 258 259 260 260 261 261 262 264
249 248 248 248 248 247 247 247 248 250 253 255 256 257 257 259 261 263 264 264 264 266 267 264 259 258 261 260 259 258 255 254 253 250 247 246 260 269 256 258 262 259 259 260 261 262 263 264 265
251 251 251 252 251 253 251 253 251 251 255 256 257 257 258 259 261 263 264 266 267 266 266 269 266 263 265 262 261 260 261 259 256 250 247 248 255 258 256 265 266 262 259 258 259 260 261 262 264
252 254 253 253 251 252 256 256 257 254 254 258 257 257 257 259 260 261 263 265 266 267 268 268 268 268 265 266 266 265 264 264 261 258 255 252 249 257 269 263 256 258 260 260 258 259 258 259 260
254 251 252 254 254 251 253 256 256 258 255 255 258 258 258 258 259 260 260 262 261 262 264 265 265 266 265 265 266 266 266 266 266 263 260 270 255 252 249 251 259 262 258 260 259 258 258 258 256
257 255 254 254 255 253 253 253 258 258 257 257 257 259 260 259 260 261 260 262 263 264 265 266 265 266 266 265 266 267 267 267 267 264 259 248 255 259 259 261 264 263 259 257 257 256 255 255 257
255 256 256 256 256 257 256 254 256 258 260 259 259 260 260 261 262 262 262 262 264 264 263 264 264 265 265 266 267 266 267 265 265 265 264 261 262 264 265 267 266 266 260 257 254 253 253 252 254
255 255 256 257 257 257 258 254 258 258 258 259 260 262 262 263 262 262 261 261 263 263 264 264 264 263 264 265 267 267 266 266 263 264 263 265 266 266 267 268 269 267 263 257 256 252 249 248 249
256 257 257 256 257 256 259 257 256 261 261 261 258 262 265 264 264 262 263 262 262 262 263 264 264 264 266 266 266 268 267 266 265 263 263 264 265 265 266 267 268 269 267 263 258 253 247 245 245
255 256 257 258 258 257 258 261 254 258 258 259 262 261 259 263 263 263 263 265 264 264 263 264 265 265 266 268 267 266 267 267 267 265 265 265 264 264 265 265 267 269 269 267 261 257 250 244 242
261 262 258 260 261 258 259 261 259 261 265 261 261 259 258 261 261 261 262 264 264 265 264 264 266 267 267 268 268 266 267 268 267 267 269 269 267 265 265 266 267 269 272 271 268 262 256 247 240
264 264 264 263 262 264 261 265 266 262 262 267 262 261 257 258 263 263 261 260 261 262 263 264 266 267 268 269 269 269 268 267 267 267 269 268 267 267 267 267 268 272 271 272 270 267 261 252 243
268 267 264 264 263 262 258 262 266 270 266 265 263 261 263 260 256 262 264 262 261 261 262 264 265 266 267 267 269 269 270 268 268 267 269 269 269 271 270 270 271 271 271 272 271 268 265 258 247
271 269 271 273 269 268 263 262 264 264 265 266 266 265 264 262 262 260 261 260 262 263 262 262 262 264 266 268 268 268 269 268 267 268 270 274 270 272 271 274 274 273 271 268 268 267 264 261 252
274 274 274 270 270 271 268 265 271 267 263 264 266 264 266 261 256 258 262 263 260 260 260 262 263 263 264 265 267 267 267 269 269 269 272 274 274 276 279 276 278 278 274 268 263 261 261 260 257
275 277 278 279 278 275 273 260 272 267 268 263 262 264 264 264 264 257 257 262 263 261 261 259 262 264 263 264 265 265 266 268 270 271 271 274 277 278 280 282 282 278 273 270 266 258 255 257 256
Height
10921 10923 10926 10929 10932 10934 10936 10939 10944 10952 10963 10971 10979 10976 10980 10983 10985 10975 10973 10976 10979 10980 10983 10984 10984 10984 10986 10987 10987 10988 10989 10990 10992 10993 10994 10996 10999 10999 11000 11001 11001 11001 11002 11002 11003 11003 11003 11002 11000
10917 10919 10921 10923 10926 10927 10929 10933 10937 10947 10956 10967 10972 10970 10957 10979 10977 10966 10960 10967 10971 10976 10979 10979 10981 10981 10982 10984 10986 10987 10988 10991 10991 10991 10992 10993 10995 10996 10998 10999 10999 10999 11000 10999 11000 11000 11000 10999 10998
10912 10914 10916 10918 10920 10921 10925 10932 10937 10940 10950 10960 10967 10973 10978 10918 10949 10955 10954 10961 10963 10966 10973 10975 10976 10977 10979 10980 10982 10984 10985 10987 10988 10989 10989 10990 10991 10992 10993 10995 10996 10996 10996 10996 10996 10996 10997 10996 10996
10908 10910 10912 10913 10914 10916 10921 10922 10924 10932 10941 10951 10959 10970 10963 10949 10938 10941 10943 10955 10955 10961 10969 10970 10972 10973 10976 10977 10978 10980 10981 10983 10984 10985 10986 10986 10987 10988 10989 10991 10992 10992 10992 10992 10993 10992 10993 10993 10993
10902 10905 10906 10909 10909 10913 10913 10913 10919 10925 10932 10940 10947 10952 10957 10958 10947 10943 10943 10947 10954 10961 10966 10967 10968 10969 10972 10973 10975 10976 10977 10978 10979 10981 10982 10982 10983 10983 10984 10986 10987 10988 10988 10988 10988 10988 10988 10988 10989
10896 10900 10902 10903 10904 10908 10908 10910 10913 10919 10925 10932 10935 10943 10938 10943 10945 10945 10941 10947 10953 10958 10962 10964 10963 10965 10967 10969 10970 10972 10973 10973 10974 10976 10976 10977 10978 10978 10979 10981 10982 10982 10983 10983 10983 10983 10983 10983 10984
10890 10893 10895 10897 10897 10901 10903 10903 10906 10911 10918 10925 10924 10930 10928 10940 10960 10943 10941 10946 10950 10953 10957 10958 10959 10960 10961 10964 10965 10967 10968 10968 10969 10970 10971 10972 10974 10974 10974 10975 10977 10977 10977 10977 10978 10978 10978 10978 10979
10881 10885 10887 10889 10890 10893 10897 10897 10901 10902 10912 10911 10917 10925 10917 10929 10933 10930 10931 10935 10940 10944 10947 10948 10949 10951 10953 10954 10956 10958 10961 10964 10965 10965 10965 10967 10968 10969 10969 10968 10970 10972 10972 10972 10972 10972 10973 10974 10974
10874 10877 10879 10881 10883 10886 10888 10891 10892 10896 10899 10904 10910 10913 10904 10919 10918 10916 10920 10923 10930 10934 10929 10935 10939 10940 10941 10943 10945 10950 10954 10958 10962 10962 10962 10963 10962 10962 10963 10963 10964 10965 10966 10966 10966 10967 10967 10968 10969
10867 10869 10870 10875 10877 10879 10879 10883 10884 10886 10890 10893 10901 10900 10901 10905 10905 10906 10910 10912 10917 10919 10921 10926 10927 10929 10932 10935 10937 10938 10942 10948 10953 10957 10958 10960 10959 10957 10956 10955 10957 10959 10960 10960 10960 10961 10962 10963 10962
10861 10862 10865 10865 10868 10871 10871 10874 10876 10877 10880 10883 10888 10891 10891 10895 10896 10897 10900 10900 10904 10910 10910 10913 10922 10944 10925 10927 10925 10930 10934 10940 10946 10950 10949 10950 10951 10950 10949 10947 10947 10948 10951 10953 10953 10954 10954 10956 10954
10855 10857 10858 10860 10862 10863 10864 10866 10868 10868 10871 10875 10877 10879 10882 10884 10886 10886 10889 10890 10891 10898 10899 10907 10913 10926 10909 10917 10912 10918 10927 10931 10934 10933 10935 10941 10941 10943 10940 10936 10937 10937 10939 10943 10946 10946 10947 10948 10946
10848 10850 10851 10853 10854 10857 10858 10859 10861 10862 10863 10867 10867 10870 10872 10873 10875 10877 10878 10879 10882 10885 10888 10895 10899 10913 10880 10892 10905 10905 10914 10928 10919 10925 10929 10923 10922 10925 10928 10928 10923 10926 10925 10931 10932 10938 10938 10940 10938
10840 10842 10842 10846 10846 10849 10851 10852 10855 10854 10857 10859 10859 10861 10863 10864 10865 10866 10867 10869 10870 10873 10875 10880 10890 10885 10878 10882 10890 10894 10901 10907 10908 10922 10915 10899 10891 10896 10905 10912 10912 10908 10912 10916 10920 10923 10926 10931 10931
10830 10832 10834 10836 10838 10840 10843 10844 10845 10846 10849 10847 10851 10851 10853 10854 10855 10856 10858 10857 10858 10859 10861 10866 10871 10875 10868 10872 10876 10883 10882 10890 10893 10911 10910 10884 10874 10881 10888 10893 10898 10896 10897 10900 10905 10910 10912 10915 10922
10821 10822 10824 10824 10828 10831 10833 10833 10835 10838 10838 10837 10840 10840 10842 10842 10842 10844 10845 10846 10847 10847 10847 10849 10854 10861 10851 10857 10860 10866 10870 10872 10879 10891 10895 10884 10869 10866 10870 10875 10880 10885 10884 10883 10891 10894 10900 10903 10907
10808 10809 10813 10814 10819 10818 10822 10821 10822 10830 10827 10827 10828 10829 10830 10830 10830 10831 10832 10833 10834 10835 10836 10832 10837 10842 10836 10843 10845 10849 10850 10852 10857 10875 10884 10880 10882 10861 10865 10863 10862 10864 10867 10870 10874 10881 10884 10887 10892
10793 10799 10798 10799 10804 10807 10808 10809 10808 10815 10817 10814 10816 10817 10818 10818 10818 10819 10819 10819 10822 10821 10821 10820 10821 10821 10826 10824 10830 10834 10836 10833 10836 10854 10865 10860 10864 10843 10837 10837 10843 10845 10848 10853 10858 10866 10868 10870 10873
10780 10783 10784 10783 10785 10794 10794 10794 10795 10797 10803 10802 10800 10802 10804 10805 10804 10807 10809 10807 10808 10810 10808 10809 10809 10806 10810 10811 10814 10819 10822 10819 10821 10835 10848 10838 10823 10828 10823 10823 10826 10832 10833 10835 10843 10850 10853 10851 10856
10765 10769 10769 10769 10770 10776 10779 10784 10778 10781 10784 10785 10787 10787 10786 10788 10789 10791 10796 10793 10792 10797 10795 10793 10796 10793 10794 10798 10798 10801 10805 10808 10805 10816 10822 10811 10808 10813 10807 10806 10810 10814 10820 10819 10825 10834 10837 10836 10843
10750 10751 10751 10755 10756 10759 10762 10770 10766 10766 10767 10767 10770 10768 10771 10773 10774 10774 10778 10780 10777 10779 10780 10779 10782 10782 10781 10783 10782 10785 10788 10794 10792 10795 10798 10798 10798 10795 10791 10788 10791 10793 10800 10804 10806 10813 10820 10821 10827
10736 10733 10736 10739 10739 10743 10743 10756 10752 10750 10748 10751 10755 10752 10756 10757 10758 10757 10761 10765 10762 10763 10764 10765 10765 10769 10766 10771 10768 10768 10773 10773 10780 10779 10780 10776 10775 10776 10774 10773 10772 10777 10779 10787 10789 10795 10800 10804 10807
10719 10718 10719 10721 10721 10723 10732 10726 10744 10732 10732 10731 10739 10739 10741 10739 10738 10740 10742 10747 10749 10747 10747 10749 10750 10752 10751 10753 10755 10751 10754 10756 10759 10762 10763 10764 10760 10761 10761 10761 10759 10759 10763 10767 10773 10776 10781 10784 10788
10705 10703 10704 10704 10702 10709 10717 10699 10730 10711 10712 10714 10718 10727 10728 10714 10719 10721 10725 10729 10727 10730 10736 10732 10732 10735 10737 10734 10739 10739 10737 10739 10740 10742 10743 10745 10748 10746 10747 10746 10742 10746 10745 10748 10754 10758 10761 10768 10771
10688 10685 10691 10690 10682 10696 10699 10682 10708 10703 10688 10696 10699 10701 10703 10700 10701 10701 10706 10711 10707 10710 10715 10718 10717 10719 10719 10720 10719 10722 10722 10720 10724 10725 10723 10726 10726 10732 10731 10729 10727 10730 10729 10730 10735 10739 10742 10747 10753
10673 10669 10672 10664 10669 10673 10684 10678 10686 10685 10675 10672 10680 10673 10683 10687 10682 10680 10686 10691 10691 10691 10697 10698 10700 10700 10702 10704 10702 10703 10706 10706 10706 10707 10708 10709 10710 10713 10716 10715 10713 10710 10713 10714 10715 10719 10724 10728 10734
10658 10655 10648 10644 10652 10644 10674 10667 10663 10665 10651 10651 10649 10657 10657 10662 10670 10662 10663 10669 10671 10672 10679 10680 10680 10681 10682 10684 10687 10687 10688 10692 10690 10692 10690 10692 10695 10693 10698 10698 10698 10698 10697 10695 10697 10700 10706 10710 10717
10635 10636 10633 10631 10630 10628 10651 10647 10652 10641 10627 10625 10630 10634 10638 10641 10642 10642 10640 10648 10648 10653 10659 10660 10661 10661 10662 10665 10666 10669 10672 10673 10674 10677 10673 10674 10680 10677 10683 10680 10680 10681 10681 10680 10680 10681 10685 10692 10697
10620 10620 10612 10608 10611 10608 10622 10635 10626 10613 10613 10607 10602 10612 10610 10614 10617 10622 10622 10621 10629 10632 10638 10642 10642 10646 10645 10646 10649 10652 10654 10654 10656 10661 10657 10657 10663 10659 10658 10664 10664 10664 10662 10660 10662 10664 10666 10672 10679
10601 10605 10596 10589 10589 10587 10586 10610 10596 10592 10585 10588 10581 10589 10591 10585 10587 10596 10605 10598 10603 10610 10616 10622 10624 10623 10626 10628 10629 10633 10637 10638 10638 10639 10641 10642 10644 10642 10641 10643 10644 10645 10644 10642 10643 10646 10649 10653 10659